CZ-7A R/B

Last updated on Tue Dec 09 2025 00:02:06 GMT+0000 (Coordinated Universal Time)

1 66550U 25277B 25342.45107650 .01610432 91299-6 28793-2 0 9993 2 66550 14.4003 272.0222 7123859 184.9879 159.4980 2.55273447 234

Satellite not in orbit